TimeCDT,TemperatureF,Dew PointF,Humidity,Sea Level PressureIn,VisibilityMPH,Wind Direction,Wind SpeedMPH,Gust SpeedMPH,PrecipitationIn,Events,Conditions,WindDirDegrees,DateUTC
12:52 AM,51.1,44.1,77,30.23,10.0,ESE,5.8,-,N/A,,Clear,120,2012-10-13 05:52:00
1:52 AM,55.4,44.6,67,30.19,10.0,SSE,10.4,-,N/A,,Overcast,150,2012-10-13 06:52:00
2:52 AM,53.6,46.4,77,30.15,10.0,SSE,11.5,-,N/A,,Clear,160,2012-10-13 07:52:00
3:52 AM,55.0,48.0,77,30.12,10.0,SSE,12.7,-,N/A,,Partly Cloudy,160,2012-10-13 08:52:00
4:52 AM,55.4,48.2,77,30.09,10.0,SSE,18.4,26.5,N/A,,Partly Cloudy,160,2012-10-13 09:52:00
5:52 AM,55.9,50.0,80,30.09,10.0,South,15.0,21.9,N/A,,Clear,170,2012-10-13 10:52:00
6:52 AM,55.0,52.0,89,30.09,10.0,South,16.1,-,0.00,Rain,Light Rain,170,2012-10-13 11:52:00
7:01 AM,55.4,51.8,88,30.08,9.0,South,13.8,-,0.00,Rain,Light Rain,180,2012-10-13 12:01:00
7:35 AM,55.4,53.6,94,30.07,3.0,South,16.1,-,0.01,Rain,Light Rain,180,2012-10-13 12:35:00
7:52 AM,55.9,53.1,90,30.07,6.0,South,18.4,27.6,0.02,,Overcast,180,2012-10-13 12:52:00
8:52 AM,57.2,53.6,88,30.05,2.5,South,16.1,24.2,N/A,,Overcast,170,2012-10-13 13:52:00
9:52 AM,57.9,55.9,93,30.06,2.5,South,13.8,-,N/A,,Overcast,190,2012-10-13 14:52:00
9:57 AM,57.2,55.4,94,30.07,2.5,SSW,12.7,-,0.01,Rain-Thunderstorm,Thunderstorms and Rain,200,2012-10-13 14:57:00
10:05 AM,57.2,55.4,94,30.06,0.8,South,10.4,16.1,0.07,Rain-Thunderstorm,Thunderstorms and Rain,190,2012-10-13 15:05:00
10:27 AM,59.0,57.2,94,30.04,3.0,South,10.4,-,0.40,Rain-Thunderstorm,Light Thunderstorms and Rain,180,2012-10-13 15:27:00
10:34 AM,59.0,57.2,94,30.05,2.5,South,8.1,-,0.40,Rain-Thunderstorm,Light Thunderstorms and Rain,190,2012-10-13 15:34:00
10:45 AM,60.8,57.2,88,30.05,2.0,WSW,4.6,-,N/A,Rain,Light Rain,240,2012-10-13 15:45:00
10:52 AM,60.1,57.9,93,30.05,2.0,SW,3.5,-,0.42,Rain,Rain,230,2012-10-13 15:52:00
11:14 AM,60.8,57.2,88,30.06,3.0,West,6.9,-,0.01,Rain,Light Rain,270,2012-10-13 16:14:00
11:52 AM,61.0,59.0,93,30.02,2.5,South,8.1,-,0.03,Rain,Light Rain,170,2012-10-13 16:52:00
12:06 PM,62.6,60.8,94,30.01,2.5,South,9.2,-,N/A,,Overcast,180,2012-10-13 17:06:00
12:20 PM,62.6,60.8,94,30.01,2.5,South,9.2,-,0.00,Rain-Thunderstorm,Thunderstorms and Rain,190,2012-10-13 17:20:00
12:25 PM,62.6,60.8,94,30.00,1.2,South,11.5,-,0.07,Rain-Thunderstorm,Thunderstorms and Rain,170,2012-10-13 17:25:00
12:31 PM,62.6,60.8,94,30.00,1.5,South,11.5,-,0.18,Rain,Heavy Rain,170,2012-10-13 17:31:00
12:39 PM,62.6,60.8,94,30.00,2.0,South,6.9,-,0.20,Rain,Light Rain,170,2012-10-13 17:39:00
12:52 PM,64.0,62.1,93,29.99,2.0,South,8.1,-,0.20,,Overcast,190,2012-10-13 17:52:00
12:59 PM,64.4,62.6,94,29.99,5.0,SSW,9.2,-,N/A,,Overcast,200,2012-10-13 17:59:00
1:52 PM,66.9,63.0,87,29.94,7.0,South,12.7,-,0.05,,Overcast,170,2012-10-13 18:52:00
2:52 PM,71.1,64.0,78,29.90,10.0,South,10.4,-,N/A,,Overcast,180,2012-10-13 19:52:00
3:52 PM,72.0,63.0,73,29.88,10.0,South,13.8,-,N/A,,Scattered Clouds,170,2012-10-13 20:52:00
4:52 PM,72.0,62.1,71,29.85,10.0,South,16.1,-,N/A,,Clear,180,2012-10-13 21:52:00
5:52 PM,72.0,62.1,71,29.86,10.0,South,16.1,-,N/A,,Clear,190,2012-10-13 22:52:00
6:52 PM,69.8,62.6,78,29.88,10.0,SSW,18.4,25.3,N/A,Rain,Light Rain,200,2012-10-13 23:52:00
7:52 PM,66.2,62.6,88,29.89,5.0,South,16.1,-,N/A,Rain,Rain,190,2012-10-14 00:52:00
8:52 PM,66.2,64.4,94,29.91,4.0,SSW,11.5,-,N/A,Rain,Heavy Rain,200,2012-10-14 01:52:00
9:52 PM,64.9,64.0,97,29.89,6.0,South,8.1,-,0.25,Rain-Thunderstorm,Light Rain,190,2012-10-14 02:52:00
10:06 PM,66.2,64.4,94,29.89,1.8,Calm,Calm,-,0.06,Rain,Heavy Rain,0,2012-10-14 03:06:00
10:24 PM,66.2,64.4,94,29.86,2.5,SSE,3.5,-,0.17,Rain,Rain,160,2012-10-14 03:24:00
10:49 PM,64.4,64.4,100,29.84,1.8,Calm,Calm,-,0.24,Rain,Heavy Rain,0,2012-10-14 03:49:00
10:52 PM,64.9,64.0,97,29.83,1.5,Calm,Calm,-,0.30,Rain,Heavy Rain,0,2012-10-14 03:52:00
11:00 PM,64.4,64.4,100,29.82,1.8,ESE,5.8,-,0.08,Rain,Heavy Rain,110,2012-10-14 04:00:00
11:02 PM,64.4,64.4,100,29.82,2.0,East,5.8,-,0.08,Rain,Rain,100,2012-10-14 04:02:00
11:12 PM,64.4,64.4,100,29.81,2.5,East,6.9,-,0.11,Rain,Rain,100,2012-10-14 04:12:00
11:26 PM,64.4,64.4,100,29.81,2.5,ESE,6.9,-,0.15,Rain-Thunderstorm,Rain,120,2012-10-14 04:26:00
11:35 PM,66.2,64.4,94,29.81,1.8,South,8.1,-,0.22,Rain-Thunderstorm,Heavy Rain,170,2012-10-14 04:35:00
11:47 PM,66.2,64.4,94,29.80,1.8,SW,3.5,-,0.37,Rain,Heavy Rain,220,2012-10-14 04:47:00
11:52 PM,66.2,64.4,94,29.80,3.0,SW,3.5,-,N/A,Rain,Light Rain,220,2012-10-14 04:52:00